GOES 6 [-]

Last updated on Thu Dec 28 2023 00:02:22 GMT+0000 (Coordinated Universal Time)

1 14050U 83041A 23361.58324389 .00000067 00000+0 00000+0 0 9994 2 14050 11.6361 327.4826 0002944 200.1787 4.9194 1.00256260206968
UTC large
Height (km)
Speed (km/s)
/
Latitude / Longitude
Inclination (degrees)
Orbital Period (minutes)
Azimuth
Elevation
Range (km)
Doppler Factor

Next 0 passes for location: London (51.5072 / 0.1276)

Sorry there are no passes over London.